Location: Bonningues
(50.7927°N, 2.0150°E)
Time: 02:42:56
(UTC+00:00)

Okean 3 - Pass Details

Date: 08 August 2020
Orbit: 576 x 601 km, 82.5° (Epoch: 25 September)

Event Time Altitude Azimuth Distance (km) Brightness Sun altitude
Rises 22:43:12 0° 346° (NNW) 2,848 8.5 -21.5°
Reaches altitude 10° 22:45:25 10° 343° (NNW) 1,945 7.3 -21.6°
Maximum altitude 22:49:39 59° 264° (W) 697 3.8 -21.8°
Enters shadow 22:50:20 51° 224° (SW) 758 3.7 -21.8°
